Regional Weather Roundup
Issued by NWS

Home | Current Version | Previous Version | Text Only | Print | Product List | Glossary Off
Versions: 1 2 3 4 5 6 7 8 9 10 11 12 13 14 15 16 17 18 19 20 21 22 23 24 25 26 27 28 29 30 31 32 33 34 35 36 37 38 39 40 41 42 43 44 45 46 47 48 49 50

252
ASUS43 KLOT 221500
RWRIL

ILLINOIS REGIONAL WEATHER ROUNDUP
NATIONAL WEATHER SERVICE CHICAGO/ROMEOVILLE IL
1000 AM CDT FRI MAY 22 2015

NOTE: "FAIR" INDICATES FEW OR NO CLOUDS BELOW 12,000 FEET WITH NO
SIGNIFICANT WEATHER AND/OR OBSTRUCTIONS TO VISIBILITY.

* THESE STATIONS ARE NOT UNDER NWS QUALITY CONTROL. THEY ALSO MAY NOT
  REPORT WEATHER SUCH AS PRECIPITATION OR FOG.

ILZ001-002-007-009-015-016-024-221600-
NORTHWEST ILLINOIS

CITY           SKY/WX    TMP DP  RH WIND       PRES   REMARKS
MOLINE         SUNNY     67  44  43 VRB3      30.19R
STERLING*      SUNNY     64  46  52 E7        30.20R
$$

ILZ003-004-008-010-011-017-018-221600-
NORTH CENTRAL ILLINOIS

CITY           SKY/WX    TMP DP  RH WIND       PRES   REMARKS
ROCKFORD       MOSUNNY   62  37  39 E7        30.23R
FREEPORT*      SUNNY     61  40  45 E8        30.22S
$$

ILZ005-006-012>014-019>023-221600-
NORTHEAST ILLINOIS

CITY           SKY/WX    TMP DP  RH WIND       PRES   REMARKS
CHICAGO-OHARE  SUNNY     59  36  42 NE12      30.20R
CHICAGO-MIDWAY SUNNY     62  43  49 E10       30.20R
AURORA         SUNNY     65  42  43 E7        30.20R
WAUKEGAN       SUNNY     55  33  43 NE7       30.22R
DUPAGE AIRPORT SUNNY     61  36  39 NE7       30.20R
WHEELING       SUNNY     58  32  37 NE9       30.23R
NORTHERLY ISL    N/A     52  41  66 MISG        N/A
$$

LMZ740>746-221600-
SOUTHERN LAKE MICHIGAN

STATION/POSITION SKY/WX   TEMP    WIND        PRES    VSBY  WAVE
                          AIR SEA DIR/SP/G                  HT/PER
                          (F)     (DEG/KT/KT) (MB)    (MI)  (FT/S)
SOUTHERN BUOY              41 38  330/  6/  8   N/A           1
HARRISON CRIB              46     350/ 12/ 14   N/A
BURNHAM HARBOR             51      10/ 11/ 13   N/A
CALUMET HARBOR             51     350/  7/ 10   N/A
BURNS HARBOR               51     330/  6/  7 1022.7R
MICHIGAN CITY              58      30/  7/  8   N/A
MICHIGAN CITY 6N           51 51   20/  6/  8   N/A           1
ST. JOSEPH                 56 53  110/  8/ 10   N/A           1
$$

ILZ025>027-034>036-040-047-049-050-058-095>099-221600-
WEST-CENTRAL ILLINOIS

CITY           SKY/WX    TMP DP  RH WIND       PRES   REMARKS
QUINCY         SUNNY     65  46  50 CALM      30.22R
MACOMB*        SUNNY     67  44  43 CALM      30.22S
$$

ILZ028>032-037-038-041>044-048-051>054-059>061-221600-
CENTRAL ILLINOIS

CITY           SKY/WX    TMP DP  RH WIND       PRES   REMARKS
DECATUR        SUNNY     67  49  52 W5        30.21R
PEORIA         SUNNY     70  48  45 CALM      30.20R
LINCOLN*       SUNNY     69  48  48 CALM      30.19S
SPRINGFIELD    SUNNY     68  47  46 VRB3      30.21S
TAYLORVILLE    NOT AVBL
$$

ILZ033-039-045-046-055>057-062-063-221600-
EAST-CENTRAL ILLINOIS

CITY           SKY/WX    TMP DP  RH WIND       PRES   REMARKS
CHAMPAIGN      SUNNY     67  48  50 NW6       30.20R
MATTOON        SUNNY     65  47  52 MISG      30.21R
$$

ILZ079-100>102-221600-
SOUTHWEST ILLINOIS

CITY           SKY/WX    TMP DP  RH WIND       PRES   REMARKS
ALTON          SUNNY     64  54  68 SW7       30.25R
BELLEVILLE     SUNNY     67  49  53 W8        30.24R
CAHOKIA*       SUNNY     66  48  52 VRB7      30.25S
SPARTA*        SUNNY     62  50  64 SW5       30.28S
$$

ILZ064>066-069>071-074>076-080>082-084>086-088>090-092>094-221600-
SOUTH-CENTRAL ILLINOIS

CITY           SKY/WX    TMP DP  RH WIND       PRES   REMARKS
CARBONDALE     SUNNY     64  48  56 SW6       30.29R
MT. VERNON     SUNNY     64  50  59 SW10      30.28R
SALEM*         SUNNY     65  47  53 W10       30.25R
$$

ILZ067-068-072-073-078-083-087-091-221600-
SOUTHEAST ILLINOIS

CITY           SKY/WX    TMP DP  RH WIND       PRES   REMARKS
LAWRENCEVILLE  SUNNY     64  48  56 W7        30.25R
HARRISBURG*    SUNNY     64  49  57 SW9       30.30R
ROBINSON*      SUNNY     63  47  57 W9        30.24S
$$

ABBREVIATIONS USED IN REMARKS
   TC - TEMPERATURE IN CELSIUS
  WCI - WIND CHILL INDEX
   HX - HEAT INDEX
  VSB - VISIBILITY
$$




USA.gov is the U.S. government's official web portal to all federal, state and local government web resources and services.